Flag for United Kingdom Weather past 2 weeks in Liverpool, England, United Kingdom

43 °F

Passing clouds.

Feels Like: 33 °F
Forecast: 45 / 50 °F
Wind: 25 mph from West

Location: Liverpool Airport

Current Time: Nov 28, 2015 at 1:05:41 AM

Latest Report: Nov 28, 2015 at 12:20 AM

Visibility: N/A

Pressure: 29.80 "Hg

Humidity: 81%

Dew point: 37 °F

Location of LiverpoolLocation

Historic Weather in Liverpool — Graph


Liverpool temperature yesterday

Maximum temperature yesterday: 55 °F (at 1:50 PM)
Minimum temperature yesterday: 43 °F (at 6:20 PM)
Average temperature yesterday: 50 °F

Past Weeks' High & Low Weather Summary

High61 °F (Nov 14, 9:20 PM)100% (Nov 14, 1:20 PM)30.24 "Hg (Nov 14, 1:20 PM)
Low32 °F (Nov 23, 5:20 AM)49% (Nov 21, 1:20 PM)29.24 "Hg (Nov 17, 2:50 PM)
Average48 °F85%29.82 "Hg
* Reported Nov 12 11:50 PM — Nov 27 11:50 PM, Liverpool, Weather by CustomWeather, © 2015

Note: Actual official high and low records may vary slightly from our data, if they occured in-between our weather recording intervals... More about our weather records


Liverpool weather history for previous 24 hours

Time TempWeatherWind HumidityBarometerVisibility
11:50 PM
Fri, Nov 27
43 °FScattered showers. Passing clouds.25 mph76%29.80 "HgN/A
10:50 PM43 °FSprinkles. Passing clouds.22 mph76%29.77 "HgN/A
10:20 PM43 °FSprinkles. Passing clouds.21 mph81%29.77 "HgN/A
9:50 PM43 °FSprinkles. Passing clouds.21 mph76%29.77 "HgN/A
8:50 PM45 °FPassing clouds.18 mph76%29.74 "HgN/A
8:20 PM45 °FScattered showers. Passing clouds.16 mph76%29.74 "HgN/A
7:50 PM43 °FLight rain. Passing clouds.16 mph87%29.71 "HgN/A
7:20 PM43 °FSprinkles. Passing clouds.24 mph81%29.71 "HgN/A
6:50 PM43 °FRain showers. Passing clouds.24 mph87%29.68 "Hg4 mi
6:20 PM43 °FRain showers. Passing clouds.24 mph93%29.65 "Hg4 mi
5:20 PM46 °FLight rain. Passing clouds.21 mph93%29.56 "HgN/A
4:50 PM48 °FSprinkles. Passing clouds.18 mph94%29.56 "Hg6 mi
4:20 PM48 °FSprinkles. Passing clouds.18 mph87%29.56 "Hg6 mi
3:50 PM48 °FSprinkles. Partly sunny.21 mph94%29.56 "Hg6 mi
3:20 PM48 °FScattered showers. Partly sunny.22 mph100%29.53 "Hg4 mi
2:50 PM55 °FPartly sunny.20 mph82%29.50 "HgN/A
2:20 PM54 °FPartly sunny.8 mph82%29.53 "HgN/A
1:50 PM55 °FScattered clouds.16 mph82%29.56 "HgN/A
1:20 PM54 °FScattered clouds.20 mph88%29.56 "HgN/A
12:50 PM54 °FScattered clouds.15 mph82%29.59 "HgN/A
12:20 PM54 °FScattered clouds.21 mph82%29.62 "HgN/A
11:50 AM54 °FScattered clouds.17 mph82%29.65 "HgN/A
11:20 AM54 °FScattered clouds.16 mph82%29.65 "HgN/A
10:50 AM52 °FScattered clouds.17 mph88%29.68 "HgN/A
10:20 AM54 °FPartly sunny.17 mph82%29.71 "HgN/A
9:50 AM54 °FPartly sunny.22 mph82%29.71 "HgN/A
9:20 AM52 °FScattered clouds.16 mph88%29.71 "HgN/A
8:50 AM52 °FScattered clouds.21 mph88%29.74 "HgN/A
8:20 AM52 °FScattered clouds.23 mph88%29.74 "HgN/A
7:50 AM54 °FPassing clouds.21 mph82%29.77 "HgN/A
6:50 AM52 °FPassing clouds.7 mph94%29.77 "HgN/A
6:20 AM54 °FPassing clouds.12 mph94%29.80 "HgN/A
5:50 AM52 °FPassing clouds.6 mph100%29.80 "HgN/A
5:20 AM52 °FPassing clouds.7 mph100%29.83 "HgN/A
4:50 AM52 °FPassing clouds.7 mph100%29.86 "HgN/A
3:50 AM52 °FPassing clouds.3 mph100%29.89 "HgN/A
3:20 AM50 °FPassing clouds.5 mph100%29.89 "HgN/A
2:50 AM50 °FPassing clouds.2 mph100%29.92 "HgN/A
2:20 AM50 °FPassing clouds.3 mph100%29.92 "HgN/A
1:50 AM50 °FPassing clouds.1 mph100%29.95 "HgN/A
1:20 AM50 °FPassing clouds.2 mph100%29.95 "HgN/A
Weather by CustomWeather, © 2015

See weather overviewHow to use our weather pages